owner,sensor,date,latitude,longitude,vertical_datum,sea_water_practical_salinity,qcFlag 
TABS,ioos:station:wmo:42050:1,2017-05-13T18:00:00Z,28.8425,-94.2433,2.0,32.4456,11111222 
TABS,ioos:station:wmo:42050:1,2017-05-13T18:30:00Z,28.8425,-94.2433,2.0,32.4352,11111222 
TABS,ioos:station:wmo:42050:1,2017-05-13T19:00:00Z,28.8425,-94.2433,2.0,32.4637,11111222 
TABS,ioos:station:wmo:42050:1,2017-05-13T19:30:00Z,28.8425,-94.2433,2.0,32.4098,11111222 
TABS,ioos:station:wmo:42050:1,2017-05-13T20:00:00Z,28.8425,-94.2433,2.0,32.4756,11111222 
TABS,ioos:station:wmo:42050:1,2017-05-13T20:30:00Z,28.8425,-94.2433,2.0,32.4868,11111222 
TABS,ioos:station:wmo:42050:1,2017-05-13T21:00:00Z,28.8425,-94.2433,2.0,32.4913,11111222 
TABS,ioos:station:wmo:42050:1,2017-05-13T21:30:00Z,28.8425,-94.2433,2.0,32.4917,11111222 
TABS,ioos:station:wmo:42050:1,2017-05-13T22:00:00Z,28.8425,-94.2433,2.0,32.4554,11111222 
TABS,ioos:station:wmo:42050:1,2017-05-13T22:30:00Z,28.8425,-94.2433,2.0,32.5043,11111222 
TABS,ioos:station:wmo:42050:1,2017-05-13T23:00:00Z,28.8425,-94.2433,2.0,32.5073,11111222 
TABS,ioos:station:wmo:42050:1,2017-05-13T23:30:00Z,28.8425,-94.2433,2.0,32.4877,11111222 
TABS,ioos:station:wmo:42050:1,2017-05-14T00:00:00Z,28.8425,-94.2433,2.0,32.4957,11111222 
TABS,ioos:station:wmo:42050:1,2017-05-14T00:30:00Z,28.8425,-94.2433,2.0,32.4291,11111222 
TABS,ioos:station:wmo:42050:1,2017-05-14T01:00:00Z,28.8425,-94.2433,2.0,32.56,11111222 
TABS,ioos:station:wmo:42050:1,2017-05-14T01:30:00Z,28.8425,-94.2433,2.0,32.4468,11111222 
TABS,ioos:station:wmo:42050:1,2017-05-14T02:00:00Z,28.8425,-94.2433,2.0,32.412,11111222 
TABS,ioos:station:wmo:42050:1,2017-05-14T02:30:00Z,28.8425,-94.2433,2.0,32.3747,11111222 
TABS,ioos:station:wmo:42050:1,2017-05-14T03:00:00Z,28.8425,-94.2433,2.0,32.3763,11111222 
TABS,ioos:station:wmo:42050:1,2017-05-14T03:30:00Z,28.8425,-94.2433,2.0,32.3588,11111222 
TABS,ioos:station:wmo:42050:1,2017-05-14T04:00:00Z,28.8425,-94.2433,2.0,32.3927,11111222 
TABS,ioos:station:wmo:42050:1,2017-05-14T04:30:00Z,28.8425,-94.2433,2.0,32.4066,11111222 
TABS,ioos:station:wmo:42050:1,2017-05-14T05:00:00Z,28.8425,-94.2433,2.0,32.4329,11111222 
TABS,ioos:station:wmo:42050:1,2017-05-14T05:30:00Z,28.8425,-94.2433,2.0,32.4539,11111222 
TABS,ioos:station:wmo:42050:1,2017-05-14T06:00:00Z,28.8425,-94.2433,2.0,32.4817,11111222 
TABS,ioos:station:wmo:42050:1,2017-05-14T06:30:00Z,28.8425,-94.2433,2.0,32.5,11111222 
TABS,ioos:station:wmo:42050:1,2017-05-14T07:00:00Z,28.8425,-94.2433,2.0,32.5192,11111222 
TABS,ioos:station:wmo:42050:1,2017-05-14T07:30:00Z,28.8425,-94.2433,2.0,32.5492,11111222 
TABS,ioos:station:wmo:42050:1,2017-05-14T08:00:00Z,28.8425,-94.2433,2.0,32.5729,11111222 
TABS,ioos:station:wmo:42050:1,2017-05-14T08:30:00Z,28.8425,-94.2433,2.0,32.6046,11111222 
TABS,ioos:station:wmo:42050:1,2017-05-14T09:00:00Z,28.8425,-94.2433,2.0,32.6342,11111222 
TABS,ioos:station:wmo:42050:1,2017-05-14T09:30:00Z,28.8425,-94.2433,2.0,32.6543,11111222 
TABS,ioos:station:wmo:42050:1,2017-05-14T10:00:00Z,28.8425,-94.2433,2.0,32.6773,11111222 
TABS,ioos:station:wmo:42050:1,2017-05-14T10:30:00Z,28.8425,-94.2433,2.0,32.701,11111222 
TABS,ioos:station:wmo:42050:1,2017-05-14T11:00:00Z,28.8425,-94.2433,2.0,32.7073,11111222 
TABS,ioos:station:wmo:42050:1,2017-05-14T11:30:00Z,28.8425,-94.2433,2.0,32.7177,11111222 
TABS,ioos:station:wmo:42050:1,2017-05-14T12:00:00Z,28.8425,-94.2433,2.0,32.7233,11111222 
TABS,ioos:station:wmo:42050:1,2017-05-14T12:30:00Z,28.8425,-94.2433,2.0,32.7308,11111222 
TABS,ioos:station:wmo:42050:1,2017-05-14T13:00:00Z,28.8425,-94.2433,2.0,32.7337,11111222 
TABS,ioos:station:wmo:42050:1,2017-05-14T13:30:00Z,28.8425,-94.2433,2.0,32.7243,11111222 
TABS,ioos:station:wmo:42050:1,2017-05-14T14:00:00Z,28.8425,-94.2433,2.0,32.724,11111222 
TABS,ioos:station:wmo:42050:1,2017-05-14T14:30:00Z,28.8425,-94.2433,2.0,32.7008,11111222 
TABS,ioos:station:wmo:42050:1,2017-05-14T15:00:00Z,28.8425,-94.2433,2.0,32.6934,11111222 
TABS,ioos:station:wmo:42050:1,2017-05-14T15:30:00Z,28.8425,-94.2433,2.0,32.669,11111222 
TABS,ioos:station:wmo:42050:1,2017-05-14T16:00:00Z,28.8425,-94.2433,2.0,32.635,11111222 
TABS,ioos:station:wmo:42050:1,2017-05-14T16:30:00Z,28.8425,-94.2433,2.0,32.6141,11111222 
TABS,ioos:station:wmo:42050:1,2017-05-14T17:00:00Z,28.8425,-94.2433,2.0,32.5923,11111222 
TABS,ioos:station:wmo:42050:1,2017-05-14T17:30:00Z,28.8425,-94.2433,2.0,32.5676,11111222 
TABS,ioos:station:wmo:42050:1,2017-05-14T18:00:00Z,28.8425,-94.2433,2.0,32.5671,11111222 
TABS,ioos:station:wmo:42050:1,2017-05-14T18:30:00Z,28.8425,-94.2433,2.0,32.5609,11111222 
TABS,ioos:station:wmo:42050:1,2017-05-14T19:00:00Z,28.8425,-94.2433,2.0,32.5457,11111222 
TABS,ioos:station:wmo:42050:1,2017-05-14T19:30:00Z,28.8425,-94.2433,2.0,32.5073,11111222 
TABS,ioos:station:wmo:42050:1,2017-05-14T20:00:00Z,28.8425,-94.2433,2.0,32.5175,11111222 
TABS,ioos:station:wmo:42050:1,2017-05-14T20:30:00Z,28.8425,-94.2433,2.0,32.5001,11111222 
TABS,ioos:station:wmo:42050:1,2017-05-14T21:00:00Z,28.8425,-94.2433,2.0,32.4934,11111222 
TABS,ioos:station:wmo:42050:1,2017-05-14T21:30:00Z,28.8425,-94.2433,2.0,32.486,11111222 
TABS,ioos:station:wmo:42050:1,2017-05-14T22:00:00Z,28.8425,-94.2433,2.0,32.4899,11111222 
TABS,ioos:station:wmo:42050:1,2017-05-14T22:30:00Z,28.8425,-94.2433,2.0,32.4989,11111222 
TABS,ioos:station:wmo:42050:1,2017-05-14T23:00:00Z,28.8425,-94.2433,2.0,32.5,11111222 
TABS,ioos:station:wmo:42050:1,2017-05-14T23:30:00Z,28.8425,-94.2433,2.0,32.5122,11111222 
TABS,ioos:station:wmo:42050:1,2017-05-15T00:00:00Z,28.8425,-94.2433,2.0,32.519,11111222 
TABS,ioos:station:wmo:42050:1,2017-05-15T00:30:00Z,28.8425,-94.2433,2.0,32.5294,11111222 
TABS,ioos:station:wmo:42050:1,2017-05-15T01:00:00Z,28.8425,-94.2433,2.0,32.5379,11111222 
TABS,ioos:station:wmo:42050:1,2017-05-15T01:30:00Z,28.8425,-94.2433,2.0,32.5546,11111222 
TABS,ioos:station:wmo:42050:1,2017-05-15T02:00:00Z,28.8425,-94.2433,2.0,32.5758,11111222 
TABS,ioos:station:wmo:42050:1,2017-05-15T02:30:00Z,28.8425,-94.2433,2.0,32.5928,11111222 
TABS,ioos:station:wmo:42050:1,2017-05-15T03:00:00Z,28.8425,-94.2433,2.0,32.6139,11111222 
TABS,ioos:station:wmo:42050:1,2017-05-15T03:30:00Z,28.8425,-94.2433,2.0,32.6332,11111222 
TABS,ioos:station:wmo:42050:1,2017-05-15T04:00:00Z,28.8425,-94.2433,2.0,32.6518,11111222 
TABS,ioos:station:wmo:42050:1,2017-05-15T04:30:00Z,28.8425,-94.2433,2.0,32.6572,11111222 
TABS,ioos:station:wmo:42050:1,2017-05-15T05:00:00Z,28.8425,-94.2433,2.0,32.6757,11111222 
TABS,ioos:station:wmo:42050:1,2017-05-15T05:30:00Z,28.8425,-94.2433,2.0,32.6883,11111222 
TABS,ioos:station:wmo:42050:1,2017-05-15T06:00:00Z,28.8425,-94.2433,2.0,32.7079,11111222 
TABS,ioos:station:wmo:42050:1,2017-05-15T06:30:00Z,28.8425,-94.2433,2.0,32.735,11111222 
TABS,ioos:station:wmo:42050:1,2017-05-15T07:00:00Z,28.8425,-94.2433,2.0,32.7578,11111222 
TABS,ioos:station:wmo:42050:1,2017-05-15T07:30:00Z,28.8425,-94.2433,2.0,32.7879,11111222 
TABS,ioos:station:wmo:42050:1,2017-05-15T08:00:00Z,28.8425,-94.2433,2.0,32.8091,11111222 
TABS,ioos:station:wmo:42050:1,2017-05-15T08:30:00Z,28.8425,-94.2433,2.0,32.8513,11111222 
TABS,ioos:station:wmo:42050:1,2017-05-15T09:00:00Z,28.8425,-94.2433,2.0,32.8974,11111222 
TABS,ioos:station:wmo:42050:1,2017-05-15T09:30:00Z,28.8425,-94.2433,2.0,32.9249,11111222 
TABS,ioos:station:wmo:42050:1,2017-05-15T10:00:00Z,28.8425,-94.2433,2.0,32.9798,11111222 
TABS,ioos:station:wmo:42050:1,2017-05-15T10:30:00Z,28.8425,-94.2433,2.0,33.0097,11111222 
TABS,ioos:station:wmo:42050:1,2017-05-15T11:00:00Z,28.8425,-94.2433,2.0,33.0767,11111222 
TABS,ioos:station:wmo:42050:1,2017-05-15T11:30:00Z,28.8425,-94.2433,2.0,33.0992,11111222 
TABS,ioos:station:wmo:42050:1,2017-05-15T12:00:00Z,28.8425,-94.2433,2.0,33.1207,11111222 
TABS,ioos:station:wmo:42050:1,2017-05-15T12:30:00Z,28.8425,-94.2433,2.0,33.1578,11111222 
TABS,ioos:station:wmo:42050:1,2017-05-15T13:00:00Z,28.8425,-94.2433,2.0,33.1638,11111222 
TABS,ioos:station:wmo:42050:1,2017-05-15T13:30:00Z,28.8425,-94.2433,2.0,33.1664,11111222 
TABS,ioos:station:wmo:42050:1,2017-05-15T14:00:00Z,28.8425,-94.2433,2.0,33.1672,11111222 
TABS,ioos:station:wmo:42050:1,2017-05-15T14:30:00Z,28.8425,-94.2433,2.0,33.1633,11111222 
TABS,ioos:station:wmo:42050:1,2017-05-15T15:00:00Z,28.8425,-94.2433,2.0,33.1479,11111222 
TABS,ioos:station:wmo:42050:1,2017-05-15T15:30:00Z,28.8425,-94.2433,2.0,33.1361,11111222 
TABS,ioos:station:wmo:42050:1,2017-05-15T16:00:00Z,28.8425,-94.2433,2.0,33.129,11111222 
TABS,ioos:station:wmo:42050:1,2017-05-15T16:30:00Z,28.8425,-94.2433,2.0,33.0921,11111222 
TABS,ioos:station:wmo:42050:1,2017-05-15T17:00:00Z,28.8425,-94.2433,2.0,33.0864,11111222 
TABS,ioos:station:wmo:42050:1,2017-05-15T17:30:00Z,28.8425,-94.2433,2.0,33.0938,11111222 
TABS,ioos:station:wmo:42050:1,2017-05-15T18:00:00Z,28.8425,-94.2433,2.0,33.0723,11111222 
TABS,ioos:station:wmo:42050:1,2017-05-15T18:30:00Z,28.8425,-94.2433,2.0,33.0447,11111222 
TABS,ioos:station:wmo:42050:1,2017-05-15T19:00:00Z,28.8425,-94.2433,2.0,33.0808,11111222 
TABS,ioos:station:wmo:42050:1,2017-05-15T19:30:00Z,28.8425,-94.2433,2.0,33.0415,11111222 
TABS,ioos:station:wmo:42050:1,2017-05-15T20:00:00Z,28.8425,-94.2433,2.0,33.055,11111222 
TABS,ioos:station:wmo:42050:1,2017-05-15T20:30:00Z,28.8425,-94.2433,2.0,33.0397,11111222 
TABS,ioos:station:wmo:42050:1,2017-05-15T21:00:00Z,28.8425,-94.2433,2.0,33.0124,11111222 
TABS,ioos:station:wmo:42050:1,2017-05-15T21:30:00Z,28.8425,-94.2433,2.0,33.0371,11111222 
TABS,ioos:station:wmo:42050:1,2017-05-15T22:00:00Z,28.8425,-94.2433,2.0,33.0107,11111222 
TABS,ioos:station:wmo:42050:1,2017-05-15T22:30:00Z,28.8425,-94.2433,2.0,32.9845,11111222 
TABS,ioos:station:wmo:42050:1,2017-05-15T23:00:00Z,28.8425,-94.2433,2.0,33.0272,11111222 
TABS,ioos:station:wmo:42050:1,2017-05-15T23:30:00Z,28.8425,-94.2433,2.0,33.0539,11111222 
TABS,ioos:station:wmo:42050:1,2017-05-16T00:00:00Z,28.8425,-94.2433,2.0,33.0217,11111222 
TABS,ioos:station:wmo:42050:1,2017-05-16T00:30:00Z,28.8425,-94.2433,2.0,32.9731,11111222 
TABS,ioos:station:wmo:42050:1,2017-05-16T01:00:00Z,28.8425,-94.2433,2.0,32.9831,11111222 
TABS,ioos:station:wmo:42050:1,2017-05-16T01:30:00Z,28.8425,-94.2433,2.0,32.9988,11111222 
TABS,ioos:station:wmo:42050:1,2017-05-16T02:00:00Z,28.8425,-94.2433,2.0,33.135,11111222 
TABS,ioos:station:wmo:42050:1,2017-05-16T02:30:00Z,28.8425,-94.2433,2.0,33.1087,11111222 
TABS,ioos:station:wmo:42050:1,2017-05-16T03:00:00Z,28.8425,-94.2433,2.0,33.0985,11111222 
TABS,ioos:station:wmo:42050:1,2017-05-16T03:30:00Z,28.8425,-94.2433,2.0,33.1062,11111222 
TABS,ioos:station:wmo:42050:1,2017-05-16T04:00:00Z,28.8425,-94.2433,2.0,33.1385,11111222 
TABS,ioos:station:wmo:42050:1,2017-05-16T04:30:00Z,28.8425,-94.2433,2.0,33.1583,11111222 
TABS,ioos:station:wmo:42050:1,2017-05-16T05:00:00Z,28.8425,-94.2433,2.0,33.1979,11111222 
TABS,ioos:station:wmo:42050:1,2017-05-16T05:30:00Z,28.8425,-94.2433,2.0,33.2482,11111222 
TABS,ioos:station:wmo:42050:1,2017-05-16T06:00:00Z,28.8425,-94.2433,2.0,33.2722,11111222 
TABS,ioos:station:wmo:42050:1,2017-05-16T06:30:00Z,28.8425,-94.2433,2.0,33.4326,11111222 
TABS,ioos:station:wmo:42050:1,2017-05-16T07:00:00Z,28.8425,-94.2433,2.0,33.5214,11111222 
TABS,ioos:station:wmo:42050:1,2017-05-16T07:30:00Z,28.8425,-94.2433,2.0,33.6359,11111222 
TABS,ioos:station:wmo:42050:1,2017-05-16T08:00:00Z,28.8425,-94.2433,2.0,33.8204,11111222 
TABS,ioos:station:wmo:42050:1,2017-05-19T22:00:00Z,28.8425,-94.2433,2.0,33.1057,11111222 
TABS,ioos:station:wmo:42050:1,2017-05-19T22:30:00Z,28.8425,-94.2433,2.0,33.0865,11111222 
TABS,ioos:station:wmo:42050:1,2017-05-19T23:00:00Z,28.8425,-94.2433,2.0,33.0804,11111222 
TABS,ioos:station:wmo:42050:1,2017-05-20T02:30:00Z,28.8425,-94.2433,2.0,33.1155,11111222 
TABS,ioos:station:wmo:42050:1,2017-05-20T03:00:00Z,28.8425,-94.2433,2.0,33.1041,11111222 
TABS,ioos:station:wmo:42050:1,2017-05-20T03:30:00Z,28.8425,-94.2433,2.0,33.1497,11111222 
TABS,ioos:station:wmo:42050:1,2017-05-20T04:00:00Z,28.8425,-94.2433,2.0,33.2603,11111222 
TABS,ioos:station:wmo:42050:1,2017-05-20T04:30:00Z,28.8425,-94.2433,2.0,33.3176,11111222 
TABS,ioos:station:wmo:42050:1,2017-05-20T05:00:00Z,28.8425,-94.2433,2.0,33.3572,11111222 
TABS,ioos:station:wmo:42050:1,2017-05-20T05:30:00Z,28.8425,-94.2433,2.0,33.3508,11111222 
TABS,ioos:station:wmo:42050:1,2017-05-20T06:00:00Z,28.8425,-94.2433,2.0,33.3517,11111222 
TABS,ioos:station:wmo:42050:1,2017-05-20T06:30:00Z,28.8425,-94.2433,2.0,33.3591,11111222 
TABS,ioos:station:wmo:42050:1,2017-05-20T07:00:00Z,28.8425,-94.2433,2.0,33.3662,11111222 
TABS,ioos:station:wmo:42050:1,2017-05-20T07:30:00Z,28.8425,-94.2433,2.0,33.3674,11111222 
TABS,ioos:station:wmo:42050:1,2017-05-20T08:00:00Z,28.8425,-94.2433,2.0,33.3773,11111222 
TABS,ioos:station:wmo:42050:1,2017-05-20T08:30:00Z,28.8425,-94.2433,2.0,33.3847,11111222 
TABS,ioos:station:wmo:42050:1,2017-05-20T09:00:00Z,28.8425,-94.2433,2.0,33.398,11111222 
TABS,ioos:station:wmo:42050:1,2017-05-20T09:30:00Z,28.8425,-94.2433,2.0,33.3998,11111222 
TABS,ioos:station:wmo:42050:1,2017-05-20T10:00:00Z,28.8425,-94.2433,2.0,33.4116,11111222 
TABS,ioos:station:wmo:42050:1,2017-05-20T10:30:00Z,28.8425,-94.2433,2.0,33.4188,11111222 
TABS,ioos:station:wmo:42050:1,2017-05-20T11:00:00Z,28.8425,-94.2433,2.0,33.4165,11111222 
TABS,ioos:station:wmo:42050:1,2017-05-20T21:00:00Z,28.8425,-94.2433,2.0,32.7845,11111222 
TABS,ioos:station:wmo:42050:1,2017-05-20T21:30:00Z,28.8425,-94.2433,2.0,32.7616,11111222 
TABS,ioos:station:wmo:42050:1,2017-05-20T22:00:00Z,28.8425,-94.2433,2.0,32.7355,11111222 
TABS,ioos:station:wmo:42050:1,2017-05-20T22:30:00Z,28.8425,-94.2433,2.0,32.7209,11111222 
TABS,ioos:station:wmo:42050:1,2017-05-20T23:00:00Z,28.8425,-94.2433,2.0,32.7194,11111222 
TABS,ioos:station:wmo:42050:1,2017-05-20T23:30:00Z,28.8425,-94.2433,2.0,32.7816,11111222 
TABS,ioos:station:wmo:42050:1,2017-05-21T00:00:00Z,28.8425,-94.2433,2.0,32.9415,11111222 
TABS,ioos:station:wmo:42050:1,2017-05-21T00:30:00Z,28.8425,-94.2433,2.0,33.154,11111222 
TABS,ioos:station:wmo:42050:1,2017-05-21T01:00:00Z,28.8425,-94.2433,2.0,33.3145,11111222 
TABS,ioos:station:wmo:42050:1,2017-05-21T01:30:00Z,28.8425,-94.2433,2.0,33.3531,11111222 
TABS,ioos:station:wmo:42050:1,2017-05-21T02:00:00Z,28.8425,-94.2433,2.0,33.3983,11111222 
TABS,ioos:station:wmo:42050:1,2017-05-21T02:30:00Z,28.8425,-94.2433,2.0,33.44,11111222 
TABS,ioos:station:wmo:42050:1,2017-05-21T03:00:00Z,28.8425,-94.2433,2.0,33.4682,11111222 
TABS,ioos:station:wmo:42050:1,2017-05-21T03:30:00Z,28.8425,-94.2433,2.0,33.4841,11111222 
TABS,ioos:station:wmo:42050:1,2017-05-21T04:00:00Z,28.8425,-94.2433,2.0,33.4875,11111222 
TABS,ioos:station:wmo:42050:1,2017-05-21T04:30:00Z,28.8425,-94.2433,2.0,33.4937,11111222 
TABS,ioos:station:wmo:42050:1,2017-05-21T05:00:00Z,28.8425,-94.2433,2.0,33.5063,11111222 
TABS,ioos:station:wmo:42050:1,2017-05-21T05:30:00Z,28.8425,-94.2433,2.0,33.5365,11111222 
TABS,ioos:station:wmo:42050:1,2017-05-21T06:00:00Z,28.8425,-94.2433,2.0,33.5739,11111222 
TABS,ioos:station:wmo:42050:1,2017-05-21T06:30:00Z,28.8425,-94.2433,2.0,33.5948,11111222 
TABS,ioos:station:wmo:42050:1,2017-05-21T07:00:00Z,28.8425,-94.2433,2.0,33.6032,11111222 
TABS,ioos:station:wmo:42050:1,2017-05-21T07:30:00Z,28.8425,-94.2433,2.0,33.5754,11111222 
TABS,ioos:station:wmo:42050:1,2017-05-21T08:00:00Z,28.8425,-94.2433,2.0,33.5569,11111222 
TABS,ioos:station:wmo:42050:1,2017-05-21T08:30:00Z,28.8425,-94.2433,2.0,33.5389,11111222 
TABS,ioos:station:wmo:42050:1,2017-05-21T09:00:00Z,28.8425,-94.2433,2.0,33.5358,11111222 
TABS,ioos:station:wmo:42050:1,2017-05-21T09:30:00Z,28.8425,-94.2433,2.0,33.5361,11111222 
TABS,ioos:station:wmo:42050:1,2017-05-21T10:00:00Z,28.8425,-94.2433,2.0,33.5303,11111222 
TABS,ioos:station:wmo:42050:1,2017-05-21T10:30:00Z,28.8425,-94.2433,2.0,33.5267,11111222 
TABS,ioos:station:wmo:42050:1,2017-05-21T11:00:00Z,28.8425,-94.2433,2.0,33.5301,11111222 
TABS,ioos:station:wmo:42050:1,2017-05-21T11:30:00Z,28.8425,-94.2433,2.0,33.5339,11111222 
TABS,ioos:station:wmo:42050:1,2017-05-21T12:00:00Z,28.8425,-94.2433,2.0,33.5365,11111222 
TABS,ioos:station:wmo:42050:1,2017-05-21T12:30:00Z,28.8425,-94.2433,2.0,33.5395,11111222 
TABS,ioos:station:wmo:42050:1,2017-05-21T13:00:00Z,28.8425,-94.2433,2.0,33.5377,11111222 
TABS,ioos:station:wmo:42050:1,2017-05-21T13:30:00Z,28.8425,-94.2433,2.0,33.5373,11111222 
TABS,ioos:station:wmo:42050:1,2017-05-21T14:00:00Z,28.8425,-94.2433,2.0,33.5355,11111222 
TABS,ioos:station:wmo:42050:1,2017-05-21T14:30:00Z,28.8425,-94.2433,2.0,33.5258,11111222 
TABS,ioos:station:wmo:42050:1,2017-05-21T15:00:00Z,28.8425,-94.2433,2.0,33.5244,11111222 
TABS,ioos:station:wmo:42050:1,2017-05-21T15:30:00Z,28.8425,-94.2433,2.0,33.5274,11111222 
TABS,ioos:station:wmo:42050:1,2017-05-21T16:00:00Z,28.8425,-94.2433,2.0,33.5266,11111222 
TABS,ioos:station:wmo:42050:1,2017-05-21T16:30:00Z,28.8425,-94.2433,2.0,33.5267,11111222 
TABS,ioos:station:wmo:42050:1,2017-05-21T17:00:00Z,28.8425,-94.2433,2.0,33.5307,11111222 
TABS,ioos:station:wmo:42050:1,2017-05-21T17:30:00Z,28.8425,-94.2433,2.0,33.5391,11111222 
TABS,ioos:station:wmo:42050:1,2017-05-21T18:00:00Z,28.8425,-94.2433,2.0,33.5531,11111222 
TABS,ioos:station:wmo:42050:1,2017-05-21T18:30:00Z,28.8425,-94.2433,2.0,33.5619,11111222 
TABS,ioos:station:wmo:42050:1,2017-05-21T19:00:00Z,28.8425,-94.2433,2.0,33.5722,11111222 
TABS,ioos:station:wmo:42050:1,2017-05-21T19:30:00Z,28.8425,-94.2433,2.0,33.5825,11111222 
TABS,ioos:station:wmo:42050:1,2017-05-21T20:00:00Z,28.8425,-94.2433,2.0,33.5843,11111222 
TABS,ioos:station:wmo:42050:1,2017-05-21T20:30:00Z,28.8425,-94.2433,2.0,33.6044,11111222 
TABS,ioos:station:wmo:42050:1,2017-05-21T21:00:00Z,28.8425,-94.2433,2.0,33.6032,11111222 
TABS,ioos:station:wmo:42050:1,2017-05-21T21:30:00Z,28.8425,-94.2433,2.0,33.5993,11111222 
TABS,ioos:station:wmo:42050:1,2017-05-21T22:00:00Z,28.8425,-94.2433,2.0,33.6089,11111222 
TABS,ioos:station:wmo:42050:1,2017-05-21T22:30:00Z,28.8425,-94.2433,2.0,33.6118,11111222 
TABS,ioos:station:wmo:42050:1,2017-05-21T23:00:00Z,28.8425,-94.2433,2.0,33.6069,11111222 
TABS,ioos:station:wmo:42050:1,2017-05-21T23:30:00Z,28.8425,-94.2433,2.0,33.623,11111222 
TABS,ioos:station:wmo:42050:1,2017-05-22T00:00:00Z,28.8425,-94.2433,2.0,33.649,11111222 
TABS,ioos:station:wmo:42050:1,2017-05-22T00:30:00Z,28.8425,-94.2433,2.0,33.6819,11111222 
TABS,ioos:station:wmo:42050:1,2017-05-22T01:00:00Z,28.8425,-94.2433,2.0,33.733,11111222 
TABS,ioos:station:wmo:42050:1,2017-05-22T01:30:00Z,28.8425,-94.2433,2.0,33.7717,11111222 
TABS,ioos:station:wmo:42050:1,2017-05-22T02:00:00Z,28.8425,-94.2433,2.0,33.7427,11111222 
TABS,ioos:station:wmo:42050:1,2017-05-22T02:30:00Z,28.8425,-94.2433,2.0,33.759,11111222 
TABS,ioos:station:wmo:42050:1,2017-05-22T03:00:00Z,28.8425,-94.2433,2.0,33.6855,11111222 
TABS,ioos:station:wmo:42050:1,2017-05-22T03:30:00Z,28.8425,-94.2433,2.0,33.6604,11111222 
TABS,ioos:station:wmo:42050:1,2017-05-22T04:00:00Z,28.8425,-94.2433,2.0,33.647,11111222 
TABS,ioos:station:wmo:42050:1,2017-05-22T04:30:00Z,28.8425,-94.2433,2.0,33.6493,11111222 
TABS,ioos:station:wmo:42050:1,2017-05-22T05:00:00Z,28.8425,-94.2433,2.0,33.626,11111222 
TABS,ioos:station:wmo:42050:1,2017-05-22T05:30:00Z,28.8425,-94.2433,2.0,33.4433,11111222 
TABS,ioos:station:wmo:42050:1,2017-05-22T06:00:00Z,28.8425,-94.2433,2.0,33.0818,11111222 
TABS,ioos:station:wmo:42050:1,2017-05-22T06:30:00Z,28.8425,-94.2433,2.0,32.7575,11111222 
TABS,ioos:station:wmo:42050:1,2017-05-22T07:00:00Z,28.8425,-94.2433,2.0,33.1808,11111222 
TABS,ioos:station:wmo:42050:1,2017-05-22T07:30:00Z,28.8425,-94.2433,2.0,33.4467,11111222 
TABS,ioos:station:wmo:42050:1,2017-05-22T08:00:00Z,28.8425,-94.2433,2.0,33.5642,11111222 
TABS,ioos:station:wmo:42050:1,2017-05-22T08:30:00Z,28.8425,-94.2433,2.0,33.7546,11111222 
TABS,ioos:station:wmo:42050:1,2017-05-22T09:00:00Z,28.8425,-94.2433,2.0,33.8434,11111222 
TABS,ioos:station:wmo:42050:1,2017-05-22T09:30:00Z,28.8425,-94.2433,2.0,33.8715,11111222 
TABS,ioos:station:wmo:42050:1,2017-05-22T10:00:00Z,28.8425,-94.2433,2.0,33.9156,11111222 
TABS,ioos:station:wmo:42050:1,2017-05-22T10:30:00Z,28.8425,-94.2433,2.0,33.9143,11111222 
TABS,ioos:station:wmo:42050:1,2017-05-22T11:00:00Z,28.8425,-94.2433,2.0,33.9678,11111222 
TABS,ioos:station:wmo:42050:1,2017-05-22T11:30:00Z,28.8425,-94.2433,2.0,33.9329,11111222 
TABS,ioos:station:wmo:42050:1,2017-05-22T12:00:00Z,28.8425,-94.2433,2.0,33.8896,11111222 
TABS,ioos:station:wmo:42050:1,2017-05-22T12:30:00Z,28.8425,-94.2433,2.0,33.8758,11111222 
TABS,ioos:station:wmo:42050:1,2017-05-22T13:00:00Z,28.8425,-94.2433,2.0,33.9485,11111222 
TABS,ioos:station:wmo:42050:1,2017-05-22T13:30:00Z,28.8425,-94.2433,2.0,33.982,11111222 
TABS,ioos:station:wmo:42050:1,2017-05-22T14:00:00Z,28.8425,-94.2433,2.0,34.0193,11111222 
TABS,ioos:station:wmo:42050:1,2017-05-22T14:30:00Z,28.8425,-94.2433,2.0,34.002,11111222 
TABS,ioos:station:wmo:42050:1,2017-05-22T15:00:00Z,28.8425,-94.2433,2.0,33.9868,11111222 
TABS,ioos:station:wmo:42050:1,2017-05-22T15:30:00Z,28.8425,-94.2433,2.0,33.9726,11111222 
TABS,ioos:station:wmo:42050:1,2017-05-22T16:00:00Z,28.8425,-94.2433,2.0,33.9955,11111222 
TABS,ioos:station:wmo:42050:1,2017-05-22T16:30:00Z,28.8425,-94.2433,2.0,34.0205,11111222 
TABS,ioos:station:wmo:42050:1,2017-05-22T17:00:00Z,28.8425,-94.2433,2.0,34.0411,11111222 
TABS,ioos:station:wmo:42050:1,2017-05-22T17:30:00Z,28.8425,-94.2433,2.0,34.0511,11111222 
TABS,ioos:station:wmo:42050:1,2017-05-22T18:00:00Z,28.8425,-94.2433,2.0,34.0656,11111222 
TABS,ioos:station:wmo:42050:1,2017-05-22T18:30:00Z,28.8425,-94.2433,2.0,34.0627,11111222 
TABS,ioos:station:wmo:42050:1,2017-05-22T19:00:00Z,28.8425,-94.2433,2.0,34.0564,11111222 
TABS,ioos:station:wmo:42050:1,2017-05-22T19:30:00Z,28.8425,-94.2433,2.0,34.0569,11111222 
TABS,ioos:station:wmo:42050:1,2017-05-22T20:00:00Z,28.8425,-94.2433,2.0,33.9579,11111222 
TABS,ioos:station:wmo:42050:1,2017-05-22T20:30:00Z,28.8425,-94.2433,2.0,33.716,11111222 
TABS,ioos:station:wmo:42050:1,2017-05-22T21:00:00Z,28.8425,-94.2433,2.0,33.7396,11111222 
TABS,ioos:station:wmo:42050:1,2017-05-22T21:30:00Z,28.8425,-94.2433,2.0,33.8311,11111222 
TABS,ioos:station:wmo:42050:1,2017-05-22T22:00:00Z,28.8425,-94.2433,2.0,33.933,11111222 
TABS,ioos:station:wmo:42050:1,2017-05-22T22:30:00Z,28.8425,-94.2433,2.0,33.8791,11111222 
TABS,ioos:station:wmo:42050:1,2017-05-22T23:00:00Z,28.8425,-94.2433,2.0,33.8311,11111222 
TABS,ioos:station:wmo:42050:1,2017-05-22T23:30:00Z,28.8425,-94.2433,2.0,33.7843,11111222 
TABS,ioos:station:wmo:42050:1,2017-05-23T00:00:00Z,28.8425,-94.2433,2.0,33.7505,11111222 
TABS,ioos:station:wmo:42050:1,2017-05-23T00:30:00Z,28.8425,-94.2433,2.0,33.731,11111222 
TABS,ioos:station:wmo:42050:1,2017-05-23T01:00:00Z,28.8425,-94.2433,2.0,33.8359,11111222 
TABS,ioos:station:wmo:42050:1,2017-05-23T01:30:00Z,28.8425,-94.2433,2.0,33.7939,11111222 
TABS,ioos:station:wmo:42050:1,2017-05-23T02:00:00Z,28.8425,-94.2433,2.0,33.9137,11111222 
TABS,ioos:station:wmo:42050:1,2017-05-23T02:30:00Z,28.8425,-94.2433,2.0,33.9795,11111222 
TABS,ioos:station:wmo:42050:1,2017-05-23T03:00:00Z,28.8425,-94.2433,2.0,34.0499,11111222 
TABS,ioos:station:wmo:42050:1,2017-05-23T03:30:00Z,28.8425,-94.2433,2.0,34.095,11111222 
TABS,ioos:station:wmo:42050:1,2017-05-23T04:00:00Z,28.8425,-94.2433,2.0,34.1089,11111222 
TABS,ioos:station:wmo:42050:1,2017-05-23T04:30:00Z,28.8425,-94.2433,2.0,34.1123,11111222 
TABS,ioos:station:wmo:42050:1,2017-05-23T05:00:00Z,28.8425,-94.2433,2.0,34.1445,11111222 
TABS,ioos:station:wmo:42050:1,2017-05-23T05:30:00Z,28.8425,-94.2433,2.0,34.1612,11111222 
TABS,ioos:station:wmo:42050:1,2017-05-23T06:00:00Z,28.8425,-94.2433,2.0,34.1914,11111222 
TABS,ioos:station:wmo:42050:1,2017-05-23T06:30:00Z,28.8425,-94.2433,2.0,34.1327,11111222 
TABS,ioos:station:wmo:42050:1,2017-05-23T07:00:00Z,28.8425,-94.2433,2.0,34.1355,11111222 
TABS,ioos:station:wmo:42050:1,2017-05-23T07:30:00Z,28.8425,-94.2433,2.0,34.1379,11111222 
TABS,ioos:station:wmo:42050:1,2017-05-23T08:00:00Z,28.8425,-94.2433,2.0,34.1713,11111222 
TABS,ioos:station:wmo:42050:1,2017-05-23T08:30:00Z,28.8425,-94.2433,2.0,34.1872,11111222 